Location: Observatory
(52.1446°N, 0.4624°W)
Time: 16:03:46
(UTC+00:00)

ISS - Pass Details

Date: 27 January 2019
Orbit: 403 x 411 km, 51.6° (Epoch: 20 February)

Event Time Altitude Azimuth Distance (km) Brightness Sun altitude
Rises 17:19:53 0° 214° (SW) 2,324 1.1 -6.4°
Reaches altitude 10° 17:22:15 10° 198° (SSW) 1,469 -0.4 -6.7°
Maximum altitude 17:24:50 22° 146° (SSE) 965 -2.0 -7.1°
Drops below altitude 10° 17:27:21 11° 95° (E) 1,448 -1.6 -7.5°
Enters shadow 17:27:46 - 91° (E) 1,587 -1.4 -7.5°
